国际通讯卫星 1-F1星 (INTELSAT 1-F1)

导读 | 星芒AI

INTELSAT 1-F1,又称“晨鸟”(Early Bird),是世界上第一颗商用通信卫星,于1965年4月6日由美国NASA发射。它由休斯飞机公司制造,运行在地球静止轨道上,主要用于跨大西洋的电视和电话信号传输。该卫星显著提升了国际通信效率,标志着现代卫星通信时代的开端,为后来的通信卫星发展奠定了基础。

基本信息
目录编号:
1317
目录名称:
INTELSAT 1-F1
国际标识:
1965-028A
轨道中心:
EARTH
卫星名称:
国际通讯卫星 1-F1星
卫星全名:
国际通讯卫星 1-F1星 (INTELSAT 1-F1)
卫星状态:
在轨 (已飞行22168 天)
发射日期:
1965-04-06 UTC
国别 :
(ITSO)
星等 :
--
轨道信息
数据来源 国际轨道数据
星历时间: 2025-12-14T12:32:18+0800
1天前
查看轨道信息
半长轴: 42182.932km
偏心率: 0.0008401
轨道倾角: 6.707°
近地点辐角 156.596°
升交点赤经 65.618°
平近点角 221.976°
近地点: 35769.359km
远地点: 35840.235km
周期: 1437.027分钟
每日圈数: 1.002069
详细信息
卫星平台:
HS-303A
平衡模式:
自旋稳定
覆盖范围:
全球
运营商:
国际卫星通信公司
运营商所在国:
美国
制造商(研发单位):
休斯公司
制造商所在国:
美国
使用方式:
暂无
卫星简介
从1965年4月至1984年3月,国际通信卫星组织发射了5代、6种不同性能的卫星共计35颗,除6颗卫星因运载火箭和远地点发动机故障而发射失败外,其余29颗卫星均被送到了预定的静止轨道位置。1984年8月前后,国际通信卫星组织利用部署在大西洋、太平洋、印度洋上空的15颗国际通信卫星,为遍布世界各地170多个国家或地区提供电话、电传、电报、电视和数据传输等电信业务;该卫星已退役。
2D轨道图
3D轨道图
轨道高度分析图
轨道倾角分析图
轨道综合分析图
查看轨道综合分析图